CW2285 Weather Reports


Display with metric or nautical units.
time (UTC)temp
F
wind
direction
speed
MPH
gust
MPH
rain 1hr
in
rain 24hr
in
rain mn
in
humidity
%
barometer
mb
20260504034502 69 311 9.0 18.0 0.00 0.00 0.00 46 1005.5
20260504034003 69 308 10.0 25.0 0.00 0.00 0.00 46 1005.4
20260504033502 70 300 13.0 25.0 0.00 0.00 0.00 46 1005.5
20260504032503 71 305 12.0 20.0 0.00 0.00 0.00 44 1005.5
20260504032003 71 288 10.0 21.0 0.00 0.00 0.00 43 1005.5
20260504031502 72 290 16.0 25.0 0.00 0.00 0.00 42 1005.4
20260504031002 72 289 7.0 21.0 0.00 0.00 0.00 42 1004.9
20260504030502 73 278 8.0 21.0 0.00 0.00 0.00 41 1004.5
20260504030003 73 289 13.0 23.0 0.00 0.00 0.00 40 1004.5
20260504025503 73 280 11.0 20.0 0.00 0.00 0.00 40 1004.5
20260504025003 73 288 10.0 21.0 0.00 0.00 0.00 40 1004.8
20260504024002 74 278 9.0 23.0 0.00 0.00 0.00 40 1004.4
20260504023502 74 308 9.0 21.0 0.00 0.00 0.00 39 1004.3
20260504023003 74 292 14.0 24.0 0.00 0.00 0.00 40 1004.3
20260504022502 74 276 15.0 22.0 0.00 0.00 0.00 39 1004.2
20260504022003 75 280 14.0 31.0 0.00 0.00 0.00 39 1003.9
20260504021503 75 302 13.0 23.0 0.00 0.00 0.00 38 1004.0
20260504021003 76 277 14.0 23.0 0.00 0.00 0.00 37 1004.1
20260504020503 76 283 12.0 25.0 0.00 0.00 0.00 37 1003.9
20260504020002 76 282 16.0 25.0 0.00 0.00 0.00 37 1003.8
20260504015003 77 292 14.0 22.0 0.00 0.00 0.00 35 1003.8
20260504014503 77 286 13.0 23.0 0.00 0.00 0.00 36 1003.8
20260504014002 77 282 13.0 24.0 0.00 0.00 0.00 37 1003.7
20260504013503 77 291 13.0 23.0 0.00 0.00 0.00 37 1003.8
20260504012503 78 275 12.0 28.0 0.00 0.00 0.00 36 1003.8
20260504012002 78 295 13.0 25.0 0.00 0.00 0.00 36 1003.9
20260504011502 79 292 15.0 24.0 0.00 0.00 0.00 36 1003.8
20260504010502 80 284 15.0 28.0 0.00 0.00 0.00 34 1003.4
20260504010003 80 318 13.0 26.0 0.00 0.00 0.00 33 1003.5
20260504005503 81 288 11.0 26.0 0.00 0.00 0.00 32 1003.7
20260504005003 81 296 12.0 21.0 0.00 0.00 0.00 31 1003.5
20260504004502 81 287 14.0 22.0 0.00 0.00 0.00 32 1003.5
20260504004002 82 276 10.0 20.0 0.00 0.00 0.00 32 1003.4
20260504003502 81 288 10.0 20.0 0.00 0.00 0.00 33 1003.3
20260504003003 82 292 12.0 23.0 0.00 0.00 0.00 32 1003.4
20260504002503 82 285 14.0 24.0 0.00 0.00 0.00 31 1003.3
20260504002002 82 299 12.0 23.0 0.00 0.00 0.00 32 1003.3
20260504001503 83 289 10.0 23.0 0.00 0.00 0.00 31 1003.3
20260504001003 83 305 10.0 21.0 0.00 0.00 0.00 32 1003.3
20260504000003 83 308 9.0 20.0 0.00 0.00 0.00 33 1003.3
20260503235503 83 300 12.0 22.0 0.00 0.00 0.00 32 1003.7
20260503235003 83 297 9.0 20.0 0.00 0.00 0.00 33 1003.5
20260503234502 82 308 12.0 23.0 0.00 0.00 0.00 34 1003.5
20260503234003 82 310 14.0 22.0 0.00 0.00 0.00 33 1003.7
20260503233503 82 301 13.0 28.0 0.00 0.00 0.00 33 1003.5
20260503233002 83 289 14.0 28.0 0.00 0.00 0.00 33 1003.5
20260503232502 83 289 13.0 28.0 0.00 0.00 0.00 32 1003.6
20260503232003 83 283 17.0 29.0 0.00 0.00 0.00 32 1003.3
20260503231502 82 295 13.0 26.0 0.00 0.00 0.00 34 1003.3
20260503231002 82 273 17.0 31.0 0.00 0.00 0.00 34 1003.3
20260503230503 82 290 17.0 29.0 0.00 0.00 0.00 34 1003.3
20260503230002 82 290 18.0 28.0 0.00 0.00 0.00 34 1003.3
20260503225503 82 279 18.0 33.0 0.00 0.00 0.00 34 1003.3
20260503225002 82 276 18.0 32.0 0.00 0.00 0.00 35 1003.3
20260503224502 82 279 21.0 36.0 0.00 0.00 0.00 34 1003.3
20260503224003 83 295 17.0 33.0 0.00 0.00 0.00 34 1003.2
20260503223502 83 289 21.0 31.0 0.00 0.00 0.00 35 1003.3
20260503223003 83 298 19.0 29.0 0.00 0.00 0.00 33 1003.3
20260503222502 83 285 17.0 31.0 0.00 0.00 0.00 33 1003.3
20260503222003 83 284 18.0 30.0 0.00 0.00 0.00 34 1003.3
20260503221503 83 291 12.0 26.0 0.00 0.00 0.00 34 1003.3
20260503221003 83 288 21.0 33.0 0.00 0.00 0.00 34 1003.4
20260503220502 83 282 19.0 36.0 0.00 0.00 0.00 34 1003.4
20260503220003 83 275 17.0 28.0 0.00 0.00 0.00 33 1003.7
20260503215503 83 298 16.0 31.0 0.00 0.00 0.00 34 1003.8
20260503215002 84 287 15.0 30.0 0.00 0.00 0.00 34 1003.8
20260503214503 83 296 13.0 30.0 0.00 0.00 0.00 34 1003.8
20260503214002 83 292 17.0 30.0 0.00 0.00 0.00 34 1003.9
20260503213503 84 296 17.0 30.0 0.00 0.00 0.00 33 1004.0
20260503213002 83 295 16.0 26.0 0.00 0.00 0.00 34 1003.9
20260503212502 83 283 18.0 26.0 0.00 0.00 0.00 35 1004.2
20260503212003 83 284 18.0 28.0 0.00 0.00 0.00 34 1004.2
20260503211503 83 287 18.0 29.0 0.00 0.00 0.00 34 1004.3
20260503211003 84 283 22.0 35.0 0.00 0.00 0.00 34 1004.3
20260503210503 84 282 16.0 26.0 0.00 0.00 0.00 34 1004.2
20260503210003 84 285 9.0 24.0 0.00 0.00 0.00 34 1004.3
20260503205003 85 294 15.0 26.0 0.00 0.00 0.00 33 1004.3
20260503204503 85 298 12.0 25.0 0.00 0.00 0.00 33 1004.3
20260503204003 85 284 13.0 25.0 0.00 0.00 0.00 32 1004.4
20260503203002 84 274 14.0 24.0 0.00 0.00 0.00 34 1004.5
20260503202503 85 293 14.0 23.0 0.00 0.00 0.00 32 1004.6
20260503202003 85 290 12.0 20.0 0.00 0.00 0.00 32 1004.8
20260503201503 85 300 13.0 24.0 0.00 0.00 0.00 32 1004.8
20260503201003 85 309 10.0 23.0 0.00 0.00 0.00 32 1004.8
20260503200003 85 307 11.0 23.0 0.00 0.00 0.00 31 1004.9
20260503195003 85 294 13.0 20.0 0.00 0.00 0.00 32 1005.1
20260503194503 85 285 10.0 20.0 0.00 0.00 0.00 32 1005.3
20260503194003 85 288 11.0 20.0 0.00 0.00 0.00 32 1005.3
20260503193503 85 287 12.0 20.0 0.00 0.00 0.00 32 1005.4
20260503193002 85 278 10.0 20.0 0.00 0.00 0.00 32 1005.5
20260503192003 85 299 10.0 20.0 0.00 0.00 0.00 31 1005.5
20260503191003 85 295 11.0 20.0 0.00 0.00 0.00 31 1005.7
20260503190503 84 287 10.0 20.0 0.00 0.00 0.00 32 1005.9
20260503190002 84 283 10.0 15.0 0.00 0.00 0.00 33 1005.9
20260503185003 84 303 10.0 20.0 0.00 0.00 0.00 33 1005.9
20260503184503 84 279 10.0 16.0 0.00 0.00 0.00 33 1005.9
20260503184002 84 303 13.0 23.0 0.00 0.00 0.00 34 1005.9
20260503183503 84 311 9.0 17.0 0.00 0.00 0.00 34 1005.9
20260503183003 84 294 9.0 16.0 0.00 0.00 0.00 32 1006.0
20260503182502 84 288 9.0 17.0 0.00 0.00 0.00 34 1006.0
20260503182004 84 302 10.0 16.0 0.00 0.00 0.00 34 1006.1
20260503181504 84 296 9.0 14.0 0.00 0.00 0.00 34 1006.3
20260503181002 83 278 10.0 18.0 0.00 0.00 0.00 34 1006.3
20260503180503 83 275 9.0 16.0 0.00 0.00 0.00 34 1006.3
20260503180003 82 308 13.0 17.0 0.00 0.00 0.00 35 1006.4
20260503175502 83 288 9.0 16.0 0.00 0.00 0.00 35 1006.4
20260503175003 82 292 10.0 20.0 0.00 0.00 0.00 37 1006.4
20260503174502 82 286 9.0 16.0 0.00 0.00 0.00 37 1006.4
20260503173503 81 295 10.0 18.0 0.00 0.00 0.00 37 1006.4
20260503172502 81 294 11.0 17.0 0.00 0.00 0.00 37 1006.4
20260503172003 81 295 8.0 15.0 0.00 0.00 0.00 38 1006.4
20260503171003 80 297 11.0 20.0 0.00 0.00 0.00 40 1006.4
20260503170503 79 301 10.0 18.0 0.00 0.00 0.00 41 1006.5
20260503151003 74 290 12.0 20.0 0.00 0.00 0.00 46 1006.3
20260503150503 73 287 11.0 23.0 0.00 0.00 0.00 47 1006.3
20260503131003 71 285 15.0 23.0 0.00 0.00 0.00 50 1005.0
20260503130503 71 290 14.0 22.0 0.00 0.00 0.00 51 1004.9
20260503110503 75 297 9.0 17.0 0.00 0.00 0.00 44 1004.7
20260503090503 80 307 6.0 15.0 0.00 0.00 0.00 32 1005.3
20260503081503 81 323 3.0 9.0 0.00 0.00 0.00 32 1005.9
20260503081003 81 324 2.0 9.0 0.00 0.00 0.00 31 1006.0
20260503080503 81 294 3.0 8.0 0.00 0.00 0.00 31 1006.1
20260503072503 82 252 1.0 6.0 0.00 0.00 0.00 31 1006.2
20260503072003 82 268 2.0 3.0 0.00 0.00 0.00 31 1006.1
20260503071504 82 296 2.0 7.0 0.00 0.00 0.00 31 1006.0
20260503071003 82 283 2.0 7.0 0.00 0.00 0.00 30 1006.0
20260503070503 83 281 2.0 3.0 0.00 0.00 0.00 31 1005.9
20260503055002 82 299 1.0 3.0 0.00 0.00 0.00 34 1006.1
20260503054502 82 291 0.0 1.0 0.00 0.00 0.00 34 1006.1
20260503054003 82 266 1.0 2.0 0.00 0.00 0.00 34 1006.1
20260503053502 82 315 0.0 2.0 0.00 0.00 0.00 34 1006.2
20260503052503 82 304 2.0 3.0 0.00 0.00 0.00 36 1006.1
20260503052003 82 329 1.0 3.0 0.00 0.00 0.00 36 1006.1
20260503051003 83 309 1.0 3.0 0.00 0.00 0.00 34 1006.1
20260503050502 84 289 2.0 6.0 0.00 0.00 0.00 33 1006.1
20260503045503 84 297 3.0 6.0 0.00 0.00 0.00 33 1005.9
20260503044503 85 289 2.0 7.0 0.00 0.00 0.00 32 1005.9
20260503044003 85 303 3.0 8.0 0.00 0.00 0.00 32 1005.8
20260503043503 85 288 2.0 7.0 0.00 0.00 0.00 32 1005.8
20260503043003 84 299 2.0 5.0 0.00 0.00 0.00 33 1005.7
20260503042503 85 302 1.0 7.0 0.00 0.00 0.00 31 1005.5
20260503041002 86 296 3.0 12.0 0.00 0.00 0.00 30 1005.4
20260503035503 86 299 7.0 13.0 0.00 0.00 0.00 29 1005.3
20260503035003 86 283 7.0 12.0 0.00 0.00 0.00 31 1005.3